Location: Santa Barbara
(34.4500°N, 119.7700°W)
Time: 07:25:22
(UTC-07:00)

Cosmos 1892 Rocket - Visible Passes

Search period start: 04 September 2015 00:00
Search period end: 14 September 2015 00:00
Orbit: 606 x 635 km, 82.5° (Epoch: 02 September)

Date Brightness Start Highest point End Pass type
(mag) Time Alt. Az. Time Alt. Az. Time Alt. Az.
06 Sep 6.6 05:40:42 10° SE 05:43:35 18° E 05:46:37 10° NE visible
07 Sep 5.4 05:57:20 10° SSE 06:01:16 36° E 06:05:15 10° NNE visible
10 Sep 6.3 05:13:52 10° SE 05:16:58 20° E 05:20:12 10° NE visible
11 Sep 5.0 05:30:38 10° SSE 05:34:39 40° E 05:38:43 10° NNE visible
12 Sep 3.6 05:48:04 10° S 05:52:23 85° E 05:56:44 10° N visible
13 Sep 6.8 04:31:36 10° ESE 04:32:41 11° E 04:34:05 10° ENE visible
13 Sep 3.8 06:06:04 10° SSW 06:10:14 45° W 06:14:23 10° N visible
